Regional Weather Roundup
Issued by NWS Mobile, AL

Home | Current Version | Previous Version | Text Only | Print | Product List | Glossary On
Versions: 1 2 3 4 5 6 7 8 9 10 11 12 13 14 15 16 17 18 19 20 21 22 23 24 25 26 27 28 29 30 31 32 33 34 35 36 37 38 39 40 41 42 43 44 45 46 47 48 49 50
000
ASUS44 KMOB 140212
RWRMOB
REGIONAL WEATHER ROUNDUP
NATIONAL WEATHER SERVICE MOBILE AL
800 PM CST SAT FEB 13 2016

NOTE: "FAIR" INDICATES FEW OR NO CLOUDS BELOW 12,000 FEET WITH NO
      SIGNIFICANT WEATHER AND/OR OBSTRUCTIONS TO VISIBILITY.

  * THESE STATIONS ARE PART OF THE UNIVERSITY OF SOUTH ALABAMA
    MESONET AND ARE NOT UNDER NWS OR FAA QUALITY CONTROL.

ALZ061>064-140300-
COASTAL ALABAMA

CITY           SKY/WX    TMP DP  RH WIND       PRES   REMARKS
MOBILE REG APT CLEAR     47  23  38 N8        30.37R
BROOKLEY FIELD CLEAR     49  23  36 N7        30.38R
USA CAMPUS*    NOT AVBL
DOG RIVER*     NOT AVBL


CITY           SKY/WX    TMP DP  RH WIND       PRES   REMARKS
MOUNT VERNON*  NOT AVBL
SARALAND*      NOT AVBL
BAY MINETTE*   NOT AVBL
LOXLEY*        NOT AVBL
ROBERTSDALE*   NOT AVBL
FAIRHOPE*      NOT AVBL
ELBERTA*       NOT AVBL
FOLEY*         NOT AVBL
GRAND BAY*     NOT AVBL
DAUPHIN ISLND* NOT AVBL
BON SCOUR NWR* NOT AVBL
GULF SHORES    CLEAR     47  23  39 N3        30.36R

$$

ALZ051>060-140300-
INTERIOR SOUTHWEST AND SOUTH CENTRAL ALABAMA

CITY           SKY/WX    TMP DP  RH WIND       PRES   REMARKS
GREENVILLE     CLEAR     42  12  29 N5        30.37S
EVERGREEN      CLEAR     40  22  48 N3        30.38R
CASTLEBERRY*   NOT AVBL
ATMORE*        NOT AVBL
DIXIE*         NOT AVBL
ANDALUSIA/OPP  CLEAR     47  18  31 E5        30.36F
ANDALUSIA*     NOT AVBL
FLORALA APT    NOT AVBL
FLORALA*       NOT AVBL

$$

FLZ001>006-140300-
WESTERN FLORIDA PANHANDLE

CITY           SKY/WX    TMP DP  RH WIND       PRES   REMARKS
PENSACOLA      CLEAR     50  24  36 N7        30.35R
NAS PENSACOLA  CLEAR     48  21  34 N6        30.35R
MILTON         CLEAR     42  27  55 N3        30.36R
WHTNG S FIELD  CLEAR     46  23  40 N7        30.36R


CITY           SKY/WX    TMP DP  RH WIND       PRES   REMARKS
WALNUT HILL*   NOT AVBL
JAY*           NOT AVBL
DUKE FIELD     CLEAR     46  18  32 NE6       30.33F
CRESTVIEW      CLEAR     45  20  36 N6        30.36F
VALPARAISO     NOT AVBL
DESTIN         CLEAR     53  24  32 N6        30.34S

$$

MSZ076-079-140300-
INTERIOR SOUTHEAST MISSISSIPPI

CITY           SKY/WX    TMP DP  RH WIND       PRES   REMARKS
LEAKESVILLE*   NOT AVBL
AGRICOLA*      NOT AVBL

$$

MARINE OBSERVATIONS

STATION/POSITION TIME  TEMP    WIND        PRES    WAVE
                       AIR SEA DIR/SP/G            HT/PER
                 (UTC) (F)     (DEG/KT/KT) (MB)    (FT/S)
PASCAGOULA       0100   55      20/  6/  8 1027.4R
PETIT BOIS ISLND 0100   55      60/  5/  6 1028.1R
GRAND BAY        0000   53      20/  5     1028.0S
KATRINA CUT      0100   53      30/ 12       N/A
CEDAR POINT      0100   54      30/ 11     1027.1R
E DAUPHIN ISLAND 0100   55      20/ 14/ 15 1027.3R
MIDDLE BAY LIGHT 0100           30/ 12     1027.1R
USCG MOBILE BAY  0100   53 54  360/  4/  5 1028.5R
STATE DOCKS      0100   53 53              1027.8R
MEAHER PARK      0100   50        CALM     1028.1R
WEEKS BAY        0000   52                   N/A
FORT MORGAN      0100   55      40/ 16/ 18 1026.9R
12 S ORANGE BCH  0150   57 65   10/ 16/ 17 1027.0R   2/ 3
PENSACOLA BAY    0100   56 53  360/  4/  6 1027.5S

$$

SELECTED LOCATIONS ACROSS THE REGION

CITY           SKY/WX    TMP DP  RH WIND       PRES   REMARKS
NEW ORLEANS    CLEAR     53  37  54 SE6       30.35R
GULFPORT       CLEAR     51  31  46 NE5       30.35R
PASCAGOULA AP  CLEAR     45  30  55 NE5       30.37R
PASCAGOULA*    NOT AVBL
HATTIESBURG    CLEAR     43  29  57 CALM      30.38R
LAUREL         CLEAR     41  23  48 NE3       30.38R
MERIDIAN       CLEAR     39  18  42 NE7       30.40R
JACKSON        CLEAR     41  22  46 E6        30.36F
MONTGOMERY     CLEAR     41  14  33 N5        30.40S
TROY           CLEAR     41  17  38 N5        30.38S
KINSTON*       NOT AVBL
GENEVA*        NOT AVBL
ASHFORD*       NOT AVBL
DOTHAN         CLEAR     44  17  33 N7        30.39S
PANAMA CITY    CLEAR     48  23  37 N9        30.33F

$$




USA.gov is the U.S. government's official web portal to all federal, state and local government web resources and services.